カタログに戻る

STARLINK-33627

運用中通信VLEO
NORAD 63068·PAYLOAD·🇺🇸 United States

打ち上げ Feb 21, 2025 から Cape Canaveral Space Force Station

Loading…

次のパス (今後24時間)

TLE

最新Source: CelesTrak SupGP

元期: Sep 14, 2026, 21:05 UTC

1 63068C 25035S   26257.87895833 -.00027897  00000+0 -10105-2 0  2571
2 63068  42.9990 158.7427 0001371 265.0461  54.5496 15.27589762    14

AllMySatでSTARLINK-33627をリアルタイム追跡

Download on the App Store